EW0910 Weather Reports


time (UTC)temp
C
wind
direction
speed
KPH
gust
KPH
rain 1hr
cm
rain 24hr
cm
rain mn
cm
humidity
%
barometer
mb
20260507103011 6 233 0.0 0.0 0.00 0.00 0.00 87 1018.5
20260507101511 6 234 0.0 0.0 0.00 0.00 0.00 87 1018.4
20260507100018 6 234 0.0 0.0 0.00 0.00 0.00 87 1018.4
20260507094509 7 234 0.0 0.0 0.00 0.00 0.00 88 1018.4
20260507093008 6 234 0.0 0.0 0.00 0.00 0.00 88 1018.4
20260507091504 6 233 0.0 0.0 0.00 0.00 0.00 87 1018.5
20260507090006 6 234 0.0 0.0 0.00 0.00 0.00 87 1018.3
20260507084500 6 234 0.0 0.0 0.00 0.00 0.00 88 1018.5
20260507083100 5 234 0.0 0.0 0.00 0.00 0.00 88 1018.6
20260507081559 5 233 0.0 0.0 0.00 0.00 0.00 87 1018.6
20260507074610 3 234 0.0 0.0 0.00 0.00 0.00 87 1018.8
20260507073056 3 233 0.0 0.0 0.00 0.00 0.00 87 1018.8
20260507071556 3 233 0.0 0.0 0.00 0.00 0.00 86 1018.7
20260507070106 3 233 0.0 0.0 0.00 0.00 0.00 86 1018.8
20260507064554 4 233 0.0 0.0 0.00 0.00 0.00 86 1019.0
20260507063057 3 234 0.0 0.0 0.00 0.00 0.00 85 1018.9
20260507061549 4 234 0.0 0.0 0.00 0.00 0.00 84 1019.1
20260507060048 4 234 0.0 0.0 0.00 0.00 0.00 85 1019.2
20260507054545 5 233 0.0 0.0 0.00 0.00 0.00 84 1019.0
20260507053042 5 233 0.0 0.0 0.00 0.00 0.00 82 1019.1
20260507051540 5 234 0.0 0.0 0.00 0.00 0.00 83 1019.0
20260507050038 6 233 0.0 0.0 0.00 0.00 0.00 82 1019.1
20260507044535 6 234 0.0 0.0 0.00 0.00 0.00 81 1019.2
20260507043037 6 233 0.0 0.0 0.00 0.00 0.00 80 1019.0
20260507041532 6 234 0.0 0.0 0.00 0.00 0.00 80 1019.1
20260507040033 6 233 0.0 0.0 0.00 0.00 0.00 81 1019.0
20260507034535 6 234 0.0 0.0 0.00 0.00 0.00 80 1019.0
20260507033030 7 233 0.0 0.0 0.00 0.00 0.00 80 1018.8
20260507031530 6 233 0.0 0.0 0.00 0.00 0.00 78 1018.8
20260507030030 7 233 0.0 0.0 0.00 0.00 0.00 78 1018.6
20260507024528 7 234 0.0 0.0 0.00 0.00 0.00 78 1018.6
20260507023027 7 234 0.0 0.0 0.00 0.00 0.00 78 1018.5
20260507021529 7 234 0.0 0.0 0.00 0.00 0.00 76 1018.4
20260507020038 8 234 0.0 0.0 0.00 0.00 0.00 72 1018.2
20260507014525 9 233 0.0 0.0 0.00 0.00 0.00 68 1017.9
20260507013040 11 233 0.0 0.0 0.00 0.00 0.00 64 1017.6
20260507011525 12 233 0.0 1.6 0.00 0.00 0.00 57 1017.6
20260507010033 13 227 0.0 1.6 0.00 0.00 0.00 51 1017.5
20260507004524 15 272 0.0 1.6 0.00 0.00 0.00 46 1017.3
20260507003024 16 281 0.0 6.4 0.00 0.00 0.00 43 1017.2
20260507001528 16 319 0.0 4.8 0.00 0.00 0.00 44 1017.1
20260507000023 16 313 0.0 11.3 0.00 0.03 0.00 46 1017.0
20260506234529 17 219 0.0 3.2 0.00 0.03 0.00 45 1016.9
20260506233021 16 277 0.0 1.6 0.00 0.03 0.00 51 1016.7
20260506231524 16 231 0.0 4.8 0.00 0.03 0.00 48 1016.7
20260506230021 16 51 1.6 11.3 0.00 0.03 0.00 48 1016.5
20260506224519 17 219 0.0 6.4 0.00 0.03 0.00 51 1016.9
20260506223018 16 240 0.0 12.9 0.00 0.03 0.00 51 1016.5
20260506221518 16 78 0.0 6.4 0.00 0.03 0.00 50 1016.7
20260506220024 16 109 0.0 6.4 0.00 0.03 0.00 48 1016.7
20260506214517 17 59 0.0 3.2 0.00 0.03 0.00 49 1016.7
20260506213016 18 98 0.0 9.7 0.00 0.03 0.00 44 1016.9
20260506211523 18 285 0.0 6.4 0.00 0.03 0.00 46 1017.0
20260506210025 18 100 3.2 16.1 0.00 0.03 0.00 44 1017.1
20260506204512 18 277 0.0 8.0 0.00 0.03 0.00 45 1017.0
20260506203010 17 66 3.2 11.3 0.00 0.03 0.00 45 1017.3
20260506201510 17 52 3.2 11.3 0.00 0.03 0.00 47 1017.3
20260506200023 17 263 1.6 19.3 0.00 0.03 0.00 49 1017.5
20260506194509 17 121 0.0 16.1 0.00 0.03 0.00 48 1017.9
20260506193009 16 232 1.6 9.7 0.00 0.03 0.00 47 1017.9
20260506191508 17 112 3.2 14.5 0.00 0.03 0.00 47 1018.1
20260506190007 17 269 0.0 9.7 0.00 0.03 0.00 48 1018.4
20260506184507 17 264 3.2 16.1 0.00 0.03 0.00 51 1018.5
20260506183006 17 271 0.0 8.0 0.00 0.03 0.00 51 1018.8
20260506181501 17 255 0.0 14.5 0.00 0.03 0.00 51 1018.9
20260506180100 17 34 0.0 16.1 0.00 0.03 0.00 50 1018.9
20260506174600 16 208 0.0 11.3 0.00 0.03 0.00 48 1019.1
20260506173111 16 269 0.0 12.9 0.00 0.03 0.00 52 1019.4
20260506171607 16 269 1.6 9.7 0.00 0.03 0.00 54 1019.4
20260506164611 16 263 1.6 14.5 0.00 0.03 0.00 51 1019.6
20260506163058 15 61 0.0 9.7 0.00 0.03 0.00 55 1019.4
20260506161552 16 230 1.6 12.9 0.00 0.03 0.00 56 1019.0
20260506160055 15 109 1.6 8.0 0.00 0.03 0.00 55 1018.6
20260506154550 15 107 0.0 8.0 0.00 0.03 0.00 56 1018.3
20260506153040 14 136 4.8 17.7 0.00 0.03 0.00 58 1017.9
20260506151539 13 92 1.6 9.7 0.00 0.03 0.00 59 1018.3
20260506150037 13 71 3.2 11.3 0.00 0.03 0.00 62 1018.5
20260506144535 13 285 0.0 8.0 0.00 0.03 0.00 63 1018.2
20260506143036 13 261 0.0 6.4 0.00 0.03 0.00 65 1018.2
20260506141531 12 127 0.0 9.7 0.00 0.03 0.00 69 1018.3
20260506140027 11 14 0.0 11.3 0.00 0.03 0.00 72 1018.6
20260506134522 10 83 1.6 8.0 0.00 0.03 0.00 77 1018.2
20260506133020 9 142 0.0 3.2 0.00 0.03 0.00 79 1018.4
20260506131519 9 111 0.0 6.4 0.00 0.03 0.00 79 1018.4
20260506130016 8 115 0.0 4.8 0.00 0.10 0.00 82 1018.1
20260506124509 7 167 0.0 1.6 0.00 0.10 0.00 83 1017.7
20260506123008 7 346 0.0 3.2 0.00 0.10 0.00 83 1018.1
20260506121505 7 120 0.0 4.8 0.00 0.10 0.00 83 1017.4
20260506120005 7 98 0.0 6.4 0.00 0.10 0.00 83 1017.1
20260506114503 7 147 0.0 9.7 0.00 0.10 0.00 83 1017.1
20260506113003 7 127 0.0 4.8 0.00 0.10 0.00 84 1017.6
20260506111501 7 116 0.0 6.4 0.00 0.10 0.00 84 1017.4
20260506104558 7 15 0.0 4.8 0.00 0.10 0.00 85 1017.0